Time,TemperatureF,DewpointF,PressureIn,WindDirection,WindDirectionDegrees,WindSpeedMPH,WindSpeedGustMPH,Humidity,HourlyPrecipIn,Conditions,Clouds,dailyrainin,SoftwareType,DateUTC
2013-02-25 00:02:00,62.0,59.0,29.60,ESE,116,8.0,-999.0,91,0.00,,,0.00,,2013-02-25 06:02:00,
2013-02-25 00:11:00,62.0,59.0,29.60,ESE,116,8.0,-999.0,91,0.00,,,0.00,,2013-02-25 06:11:00,
2013-02-25 00:21:00,62.0,60.0,29.58,ESE,115,8.0,-999.0,92,0.00,,,0.00,,2013-02-25 06:21:00,
2013-02-25 00:31:00,62.0,60.0,29.58,SE,135,11.0,-999.0,92,0.00,,,0.00,,2013-02-25 06:31:00,
2013-02-25 00:41:00,62.0,60.0,29.58,SE,135,11.0,-999.0,92,0.00,,,0.00,,2013-02-25 06:41:00,
2013-02-25 00:52:00,62.0,59.0,29.58,ESE,112,7.0,-999.0,91,0.00,,,0.00,,2013-02-25 06:52:00,
2013-02-25 01:01:00,62.0,60.0,29.57,East,92,8.0,-999.0,92,0.00,,,0.00,,2013-02-25 07:01:00,
2013-02-25 01:11:00,62.0,60.0,29.57,SE,130,6.0,-999.0,92,0.00,,,0.00,,2013-02-25 07:11:00,
2013-02-25 01:21:00,62.0,60.0,29.57,SE,130,6.0,-999.0,92,0.00,,,0.00,,2013-02-25 07:21:00,
2013-02-25 01:31:00,62.0,60.0,29.57,SE,134,6.0,-999.0,92,0.00,,,0.00,,2013-02-25 07:31:00,
2013-02-25 01:41:00,62.0,60.0,29.57,SE,134,6.0,-999.0,92,0.00,,,0.00,,2013-02-25 07:41:00,
2013-02-25 01:52:00,62.0,60.0,29.56,ESE,117,2.0,-999.0,92,0.00,,,0.00,,2013-02-25 07:52:00,
2013-02-25 02:01:00,62.0,60.0,29.57,ESE,117,4.0,-999.0,92,0.00,,,0.00,,2013-02-25 08:01:00,
2013-02-25 02:11:00,62.0,60.0,29.57,SE,138,4.0,-999.0,92,0.00,,,0.00,,2013-02-25 08:11:00,
2013-02-25 02:21:00,62.0,60.0,29.57,SE,138,4.0,-999.0,92,0.00,,,0.00,,2013-02-25 08:21:00,
2013-02-25 02:32:00,61.0,59.0,29.57,SSE,147,3.0,-999.0,92,0.00,,,0.00,,2013-02-25 08:32:00,
2013-02-25 02:41:00,61.0,59.0,29.57,SSE,147,3.0,-999.0,92,0.00,,,0.00,,2013-02-25 08:41:00,
2013-02-25 02:52:00,61.0,59.0,29.57,SSE,167,4.0,-999.0,93,0.00,,,0.00,,2013-02-25 08:52:00,
2013-02-25 03:01:00,61.0,59.0,29.57,South,173,3.0,-999.0,94,0.00,,,0.00,,2013-02-25 09:01:00,
2013-02-25 03:12:00,61.0,59.0,29.57,South,173,3.0,-999.0,94,0.00,,,0.00,,2013-02-25 09:12:00,
2013-02-25 03:21:00,61.0,59.0,29.57,South,181,4.0,-999.0,94,0.00,,,0.00,,2013-02-25 09:21:00,
2013-02-25 03:31:00,61.0,59.0,29.57,SSW,195,2.0,-999.0,94,0.00,,,0.00,,2013-02-25 09:31:00,
2013-02-25 03:41:00,61.0,59.0,29.57,SSW,195,2.0,-999.0,94,0.00,,,0.00,,2013-02-25 09:41:00,
2013-02-25 03:51:00,61.0,59.0,29.57,SSW,195,0.0,-999.0,94,0.00,,,0.00,,2013-02-25 09:51:00,
2013-02-25 04:01:00,61.0,59.0,29.57,SSW,195,2.0,-999.0,94,0.00,,,0.00,,2013-02-25 10:01:00,
2013-02-25 04:11:00,61.0,60.0,29.57,WSW,252,2.0,-999.0,95,0.00,,,0.00,,2013-02-25 10:11:00,
2013-02-25 04:21:00,61.0,60.0,29.57,WSW,252,2.0,-999.0,95,0.00,,,0.00,,2013-02-25 10:21:00,
2013-02-25 04:31:00,61.0,60.0,29.57,WSW,252,2.0,-999.0,95,0.00,,,0.00,,2013-02-25 10:31:00,
2013-02-25 04:42:00,61.0,60.0,29.57,WSW,252,2.0,-999.0,95,0.00,,,0.00,,2013-02-25 10:42:00,
2013-02-25 04:52:00,62.0,61.0,29.59,West,265,5.0,-999.0,95,0.00,,,0.00,,2013-02-25 10:52:00,
2013-02-25 05:01:00,61.0,59.0,29.57,SW,229,2.0,-999.0,94,0.00,,,0.01,,2013-02-25 11:01:00,
2013-02-25 05:11:00,61.0,59.0,29.57,SW,229,2.0,-999.0,94,0.00,,,0.01,,2013-02-25 11:11:00,
2013-02-25 05:21:00,61.0,59.0,29.57,SW,229,2.0,-999.0,94,0.00,,,0.01,,2013-02-25 11:21:00,
2013-02-25 05:32:00,61.0,60.0,29.57,SW,229,0.0,-999.0,95,0.00,,,0.01,,2013-02-25 11:32:00,
2013-02-25 05:42:00,61.0,60.0,29.57,SW,229,0.0,-999.0,95,0.00,,,0.01,,2013-02-25 11:42:00,
2013-02-25 05:52:00,61.0,60.0,29.57,SW,229,1.0,-999.0,95,0.00,,,0.01,,2013-02-25 11:52:00,
2013-02-25 06:02:00,61.0,60.0,29.60,West,272,16.0,-999.0,95,0.00,,,0.01,,2013-02-25 12:02:00,
2013-02-25 06:11:00,61.0,60.0,29.60,West,272,16.0,-999.0,95,0.00,,,0.01,,2013-02-25 12:11:00,
2013-02-25 06:21:00,59.0,48.0,29.62,WNW,295,6.0,-999.0,68,0.00,,,0.01,,2013-02-25 12:21:00,
2013-02-25 06:32:00,58.0,46.0,29.61,WNW,296,8.0,-999.0,65,0.00,,,0.01,,2013-02-25 12:32:00,
2013-02-25 06:55:00,58.0,45.0,29.62,NW,316,6.0,-999.0,63,0.00,,,0.01,,2013-02-25 12:55:00,
2013-02-25 07:02:00,57.0,45.0,29.62,NW,317,5.0,-999.0,64,0.00,,,0.01,,2013-02-25 13:02:00,
2013-02-25 07:12:00,57.0,45.0,29.62,NW,317,5.0,-999.0,64,0.00,,,0.01,,2013-02-25 13:12:00,
2013-02-25 07:22:00,57.0,42.0,29.63,NW,304,4.0,-999.0,58,0.00,,,0.01,,2013-02-25 13:22:00,
2013-02-25 07:32:00,57.0,41.0,29.64,WNW,296,8.0,-999.0,55,0.00,,,0.01,,2013-02-25 13:32:00,
2013-02-25 07:42:00,57.0,41.0,29.64,WNW,296,8.0,-999.0,55,0.00,,,0.01,,2013-02-25 13:42:00,
2013-02-25 07:52:00,59.0,38.0,29.64,WNW,294,10.0,-999.0,46,0.00,,,0.01,,2013-02-25 13:52:00,
2013-02-25 08:03:00,59.0,37.0,29.65,WNW,298,8.0,-999.0,44,0.00,,,0.01,,2013-02-25 14:03:00,
2013-02-25 08:17:00,59.0,37.0,29.65,WNW,298,8.0,-999.0,44,0.00,,,0.01,,2013-02-25 14:17:00,
2013-02-25 08:32:00,59.0,35.0,29.65,WNW,288,10.0,-999.0,41,0.00,,,0.01,,2013-02-25 14:32:00,
2013-02-25 08:42:00,59.0,35.0,29.65,WNW,288,10.0,-999.0,41,0.00,,,0.01,,2013-02-25 14:42:00,
2013-02-25 08:52:00,60.0,34.0,29.66,West,271,16.0,-999.0,38,0.00,,,0.02,,2013-02-25 14:52:00,
2013-02-25 09:02:00,61.0,30.0,29.67,West,276,12.0,-999.0,31,0.00,,,0.02,,2013-02-25 15:02:00,
2013-02-25 09:11:00,61.0,30.0,29.67,West,276,12.0,-999.0,31,0.00,,,0.02,,2013-02-25 15:11:00,
2013-02-25 09:21:00,61.0,30.0,29.67,West,276,12.0,-999.0,31,0.00,,,0.02,,2013-02-25 15:21:00,
2013-02-25 09:32:00,62.0,25.0,29.67,West,267,14.0,-999.0,24,0.00,,,0.02,,2013-02-25 15:32:00,
2013-02-25 09:41:00,62.0,25.0,29.67,West,267,14.0,-999.0,24,0.00,,,0.02,,2013-02-25 15:41:00,
2013-02-25 09:52:00,62.0,25.0,29.68,West,263,17.0,-999.0,24,0.00,,,0.02,,2013-02-25 15:52:00,
2013-02-25 10:01:00,62.0,23.0,29.68,West,268,13.0,-999.0,22,0.00,,,0.02,,2013-02-25 16:01:00,
2013-02-25 10:11:00,62.0,23.0,29.68,West,268,13.0,-999.0,22,0.00,,,0.02,,2013-02-25 16:11:00,
2013-02-25 10:21:00,63.0,24.0,29.67,West,262,20.0,-999.0,22,0.00,,,0.02,,2013-02-25 16:21:00,
2013-02-25 10:31:00,64.0,24.0,29.67,West,269,18.0,-999.0,22,0.00,,,0.02,,2013-02-25 16:31:00,
2013-02-25 10:42:00,64.0,24.0,29.67,West,269,18.0,-999.0,22,0.00,,,0.02,,2013-02-25 16:42:00,
2013-02-25 10:51:00,64.0,22.0,29.66,WNW,290,26.0,-999.0,20,0.00,,,0.02,,2013-02-25 16:51:00,
2013-02-25 11:01:00,65.0,19.0,29.66,West,262,21.0,-999.0,17,0.00,,,0.02,,2013-02-25 17:01:00,
2013-02-25 11:11:00,65.0,19.0,29.66,West,262,21.0,-999.0,17,0.00,,,0.02,,2013-02-25 17:11:00,
2013-02-25 11:21:00,65.0,19.0,29.67,West,263,19.0,-999.0,17,0.00,,,0.02,,2013-02-25 17:21:00,
2013-02-25 11:31:00,65.0,20.0,29.66,West,259,27.0,-999.0,18,0.00,,,0.02,,2013-02-25 17:31:00,
2013-02-25 11:41:00,65.0,20.0,29.66,West,259,27.0,-999.0,18,0.00,,,0.02,,2013-02-25 17:41:00,
2013-02-25 11:52:00,65.0,19.0,29.67,West,267,28.0,-999.0,17,0.00,,,0.02,,2013-02-25 17:52:00,
2013-02-25 12:01:00,65.0,19.0,29.67,WSW,244,22.0,-999.0,17,0.00,,,0.02,,2013-02-25 18:01:00,
2013-02-25 12:12:00,65.0,19.0,29.67,WSW,244,22.0,-999.0,17,0.00,,,0.02,,2013-02-25 18:12:00,
2013-02-25 12:21:00,65.0,20.0,29.67,West,265,18.0,-999.0,18,0.00,,,0.02,,2013-02-25 18:21:00,
2013-02-25 12:32:00,66.0,21.0,29.67,West,275,19.0,-999.0,18,0.00,,,0.02,,2013-02-25 18:32:00,
2013-02-25 12:41:00,66.0,21.0,29.67,West,275,19.0,-999.0,18,0.00,,,0.02,,2013-02-25 18:41:00,
2013-02-25 12:52:00,65.0,20.0,29.67,West,265,18.0,-999.0,18,0.00,,,0.02,,2013-02-25 18:52:00,
2013-02-25 13:01:00,64.0,25.0,29.66,West,276,27.0,-999.0,23,0.00,,,0.02,,2013-02-25 19:01:00,
2013-02-25 13:11:00,64.0,25.0,29.66,West,276,27.0,-999.0,23,0.00,,,0.02,,2013-02-25 19:11:00,
2013-02-25 13:21:00,63.0,27.0,29.67,WSW,254,29.0,-999.0,25,0.00,,,0.02,,2013-02-25 19:21:00,
2013-02-25 13:31:00,64.0,28.0,29.67,West,271,30.0,-999.0,26,0.00,,,0.02,,2013-02-25 19:31:00,
2013-02-25 13:41:00,64.0,28.0,29.67,West,271,30.0,-999.0,26,0.00,,,0.02,,2013-02-25 19:41:00,
2013-02-25 13:52:00,64.0,28.0,29.67,West,271,30.0,-999.0,26,0.00,,,0.02,,2013-02-25 19:52:00,
2013-02-25 14:01:00,62.0,29.0,29.67,West,276,31.0,-999.0,28,0.00,,,0.02,,2013-02-25 20:01:00,
2013-02-25 14:11:00,62.0,29.0,29.67,West,276,31.0,-999.0,28,0.00,,,0.02,,2013-02-25 20:11:00,
2013-02-25 14:21:00,62.0,29.0,29.67,WNW,289,23.0,-999.0,28,0.00,,,0.02,,2013-02-25 20:21:00,
2013-02-25 14:31:00,62.0,28.0,29.66,WNW,296,28.0,-999.0,27,0.00,,,0.02,,2013-02-25 20:31:00,
2013-02-25 14:41:00,62.0,28.0,29.66,WNW,296,28.0,-999.0,27,0.00,,,0.02,,2013-02-25 20:41:00,
2013-02-25 14:52:00,62.0,28.0,29.67,WSW,245,32.0,-999.0,27,0.00,,,0.02,,2013-02-25 20:52:00,
2013-02-25 15:01:00,61.0,27.0,29.67,West,263,28.0,-999.0,27,0.00,,,0.02,,2013-02-25 21:01:00,
2013-02-25 15:11:00,61.0,27.0,29.67,West,263,28.0,-999.0,27,0.00,,,0.02,,2013-02-25 21:11:00,
2013-02-25 15:21:00,61.0,26.0,29.68,WSW,258,28.0,-999.0,26,0.00,,,0.02,,2013-02-25 21:21:00,
2013-02-25 15:31:00,60.0,26.0,29.68,West,277,29.0,-999.0,27,0.00,,,0.02,,2013-02-25 21:31:00,
2013-02-25 15:42:00,60.0,26.0,29.68,West,277,29.0,-999.0,27,0.00,,,0.02,,2013-02-25 21:42:00,
2013-02-25 15:52:00,60.0,28.0,29.68,West,268,22.0,-999.0,29,0.00,,,0.02,,2013-02-25 21:52:00,
2013-02-25 16:01:00,60.0,28.0,29.69,WNW,291,28.0,-999.0,29,0.00,,,0.02,,2013-02-25 22:01:00,
2013-02-25 16:11:00,60.0,28.0,29.69,WNW,291,28.0,-999.0,29,0.00,,,0.02,,2013-02-25 22:11:00,
2013-02-25 16:21:00,60.0,28.0,29.70,WNW,299,36.0,-999.0,30,0.00,,,0.02,,2013-02-25 22:21:00,
2013-02-25 16:32:00,59.0,28.0,29.70,WSW,255,23.0,-999.0,30,0.00,,,0.02,,2013-02-25 22:32:00,
2013-02-25 16:42:00,59.0,28.0,29.70,WSW,255,23.0,-999.0,30,0.00,,,0.02,,2013-02-25 22:42:00,
2013-02-25 16:52:00,58.0,28.0,29.70,West,259,22.0,-999.0,31,0.00,,,0.02,,2013-02-25 22:52:00,
2013-02-25 17:01:00,58.0,28.0,29.70,West,269,26.0,-999.0,31,0.00,,,0.02,,2013-02-25 23:01:00,
2013-02-25 17:11:00,58.0,28.0,29.70,West,269,26.0,-999.0,31,0.00,,,0.02,,2013-02-25 23:11:00,
2013-02-25 17:22:00,58.0,28.0,29.70,WNW,296,18.0,-999.0,31,0.00,,,0.02,,2013-02-25 23:22:00,
2013-02-25 17:31:00,57.0,28.0,29.71,WNW,293,17.0,-999.0,33,0.00,,,0.02,,2013-02-25 23:31:00,
2013-02-25 17:41:00,57.0,28.0,29.71,WNW,293,17.0,-999.0,33,0.00,,,0.02,,2013-02-25 23:41:00,
2013-02-25 17:52:00,56.0,28.0,29.72,WNW,288,26.0,-999.0,34,0.00,,,0.02,,2013-02-25 23:52:00,
2013-02-25 18:01:00,55.0,29.0,29.73,WNW,292,25.0,-999.0,36,0.00,,,0.02,,2013-02-26 00:01:00,
2013-02-25 18:12:00,55.0,29.0,29.73,WNW,292,25.0,-999.0,36,0.00,,,0.02,,2013-02-26 00:12:00,
2013-02-25 18:22:00,54.0,29.0,29.74,WNW,294,24.0,-999.0,38,0.00,,,0.02,,2013-02-26 00:22:00,
2013-02-25 18:32:00,53.0,29.0,29.76,WSW,254,21.0,-999.0,39,0.00,,,0.02,,2013-02-26 00:32:00,
2013-02-25 18:42:00,53.0,29.0,29.76,WSW,254,21.0,-999.0,39,0.00,,,0.02,,2013-02-26 00:42:00,
2013-02-25 18:52:00,52.0,29.0,29.77,WNW,288,14.0,-999.0,41,0.00,,,0.02,,2013-02-26 00:52:00,
2013-02-25 19:02:00,52.0,30.0,29.77,West,273,12.0,-999.0,43,0.00,,,0.02,,2013-02-26 01:02:00,
2013-02-25 19:11:00,52.0,30.0,29.77,West,273,12.0,-999.0,43,0.00,,,0.02,,2013-02-26 01:11:00,
2013-02-25 19:21:00,52.0,30.0,29.77,WNW,287,20.0,-999.0,42,0.00,,,0.02,,2013-02-26 01:21:00,
2013-02-25 19:31:00,52.0,30.0,29.78,West,266,18.0,-999.0,43,0.00,,,0.02,,2013-02-26 01:31:00,
2013-02-25 19:41:00,52.0,30.0,29.78,West,266,18.0,-999.0,43,0.00,,,0.02,,2013-02-26 01:41:00,
2013-02-25 19:52:00,52.0,30.0,29.78,WNW,297,23.0,-999.0,42,0.00,,,0.02,,2013-02-26 01:52:00,
2013-02-25 20:01:00,51.0,30.0,29.80,WNW,300,28.0,-999.0,44,0.00,,,0.02,,2013-02-26 02:01:00,
2013-02-25 20:11:00,51.0,30.0,29.80,WNW,300,28.0,-999.0,44,0.00,,,0.02,,2013-02-26 02:11:00,
2013-02-25 20:21:00,51.0,30.0,29.80,West,272,25.0,-999.0,45,0.00,,,0.02,,2013-02-26 02:21:00,
2013-02-25 20:32:00,51.0,31.0,29.81,WNW,287,14.0,-999.0,46,0.00,,,0.02,,2013-02-26 02:32:00,
2013-02-25 20:41:00,51.0,31.0,29.81,WNW,287,14.0,-999.0,46,0.00,,,0.02,,2013-02-26 02:41:00,
2013-02-25 20:52:00,50.0,30.0,29.82,WNW,288,17.0,-999.0,46,0.00,,,0.02,,2013-02-26 02:52:00,
2013-02-25 21:01:00,50.0,31.0,29.83,West,271,9.0,-999.0,47,0.00,,,0.02,,2013-02-26 03:01:00,
2013-02-25 21:11:00,50.0,31.0,29.83,West,271,9.0,-999.0,47,0.00,,,0.02,,2013-02-26 03:11:00,
2013-02-25 21:21:00,50.0,31.0,29.83,West,280,21.0,-999.0,47,0.00,,,0.02,,2013-02-26 03:21:00,
2013-02-25 21:32:00,50.0,31.0,29.84,WNW,290,15.0,-999.0,47,0.00,,,0.02,,2013-02-26 03:32:00,
2013-02-25 21:41:00,50.0,31.0,29.84,WNW,290,15.0,-999.0,47,0.00,,,0.02,,2013-02-26 03:41:00,
2013-02-25 21:52:00,50.0,31.0,29.84,West,276,14.0,-999.0,47,0.00,,,0.02,,2013-02-26 03:52:00,
2013-02-25 22:01:00,50.0,31.0,29.85,West,281,11.0,-999.0,48,0.00,,,0.02,,2013-02-26 04:01:00,
2013-02-25 22:11:00,50.0,31.0,29.85,West,281,11.0,-999.0,48,0.00,,,0.02,,2013-02-26 04:11:00,
2013-02-25 22:21:00,49.0,30.0,29.85,West,277,8.0,-999.0,48,0.00,,,0.02,,2013-02-26 04:21:00,
2013-02-25 22:32:00,49.0,30.0,29.85,West,281,9.0,-999.0,48,0.00,,,0.02,,2013-02-26 04:32:00,
2013-02-25 22:42:00,49.0,30.0,29.85,West,281,9.0,-999.0,48,0.00,,,0.02,,2013-02-26 04:42:00,
2013-02-25 22:52:00,50.0,31.0,29.84,WNW,296,7.0,-999.0,48,0.00,,,0.02,,2013-02-26 04:52:00,
2013-02-25 23:01:00,49.0,30.0,29.85,WNW,286,9.0,-999.0,48,0.00,,,0.02,,2013-02-26 05:01:00,
2013-02-25 23:11:00,49.0,30.0,29.85,WNW,296,10.0,-999.0,48,0.00,,,0.02,,2013-02-26 05:11:00,
2013-02-25 23:21:00,49.0,30.0,29.85,WNW,296,10.0,-999.0,48,0.00,,,0.02,,2013-02-26 05:21:00,
2013-02-25 23:31:00,49.0,30.0,29.86,NW,304,8.0,-999.0,48,0.00,,,0.02,,2013-02-26 05:31:00,
2013-02-25 23:42:00,49.0,30.0,29.86,NW,304,8.0,-999.0,48,0.00,,,0.02,,2013-02-26 05:42:00,
2013-02-25 23:52:00,48.0,30.0,29.86,WNW,288,7.0,-999.0,49,0.00,,,0.02,,2013-02-26 05:52:00,